| time (UTC) | temp C | wind direction | speed KPH | gust KPH | rain 1hr cm | rain 24hr cm | rain mn cm | humidity % | barometer mb |
| 20260504012616 | 10 | 129 | 1.6 | 3.2 | 0.00 | 0.00 | 0.00 | 64 | 1017.6 |
| 20260504011559 | 11 | 129 | 0.0 | 3.2 | 0.00 | 0.00 | 0.00 | 63 | 1017.5 |
| 20260504010546 | 11 | 129 | 0.0 | 3.2 | 0.00 | 0.00 | 0.00 | 62 | 1017.3 |
| 20260504005535 | 11 | 153 | 1.6 | 4.8 | 0.00 | 0.00 | 0.00 | 59 | 1017.3 |
| 20260504004541 | 10 | 0.0 | 0.0 | 0.00 | 0.00 | 0.00 | 59 | 1016.9 | |
| 20260504003609 | 11 | 0.0 | 0.0 | 0.00 | 0.00 | 0.00 | 58 | 1016.8 | |
| 20260504002557 | 12 | 0.0 | 0.0 | 0.00 | 0.00 | 0.00 | 53 | 1016.6 | |
| 20260504001543 | 13 | 0.0 | 0.0 | 0.00 | 0.00 | 0.00 | 48 | 1016.4 | |
| 20260504000530 | 13 | 0.0 | 0.0 | 0.00 | 0.00 | 0.00 | 40 | 1016.2 | |
| 20260503235517 | 14 | 0.0 | 0.0 | 0.00 | 0.00 | 0.00 | 38 | 1016.0 | |
| 20260503234645 | 15 | 0.0 | 1.6 | 0.00 | 0.00 | 0.00 | 36 | 1016.0 | |
| 20260503233613 | 15 | 313 | 0.0 | 3.2 | 0.00 | 0.00 | 0.00 | 34 | 1015.9 |
| 20260503232555 | 15 | 287 | 0.0 | 4.8 | 0.00 | 0.00 | 0.00 | 33 | 1015.9 |
| 20260503231544 | 16 | 319 | 1.6 | 4.8 | 0.00 | 0.00 | 0.00 | 32 | 1015.8 |
| 20260503230612 | 16 | 349 | 1.6 | 4.8 | 0.00 | 0.00 | 0.00 | 31 | 1015.8 |
| 20260503225558 | 17 | 13 | 0.0 | 3.2 | 0.00 | 0.00 | 0.00 | 30 | 1015.9 |
| 20260503224545 | 17 | 326 | 3.2 | 9.7 | 0.00 | 0.00 | 0.00 | 29 | 1015.8 |
| 20260503223533 | 17 | 314 | 1.6 | 11.3 | 0.00 | 0.00 | 0.00 | 29 | 1015.9 |
| 20260503222518 | 17 | 348 | 1.6 | 4.8 | 0.00 | 0.00 | 0.00 | 29 | 1015.8 |
| 20260503221728 | 17 | 326 | 3.2 | 6.4 | 0.00 | 0.00 | 0.00 | 28 | 1015.8 |
| 20260503220553 | 17 | 351 | 1.6 | 4.8 | 0.00 | 0.00 | 0.00 | 28 | 1015.8 |
| 20260503215541 | 17 | 305 | 3.2 | 6.4 | 0.00 | 0.00 | 0.00 | 28 | 1015.7 |
| 20260503214547 | 18 | 291 | 3.2 | 6.4 | 0.00 | 0.00 | 0.00 | 28 | 1015.8 |
| 20260503213616 | 18 | 323 | 3.2 | 9.7 | 0.00 | 0.00 | 0.00 | 28 | 1015.7 |
| 20260503212601 | 18 | 326 | 3.2 | 6.4 | 0.00 | 0.00 | 0.00 | 29 | 1015.8 |
| 20260503211541 | 18 | 331 | 1.6 | 9.7 | 0.00 | 0.00 | 0.00 | 28 | 1015.9 |
| 20260503210527 | 18 | 314 | 1.6 | 6.4 | 0.00 | 0.00 | 0.00 | 28 | 1015.8 |
| 20260503205616 | 17 | 339 | 3.2 | 9.7 | 0.00 | 0.00 | 0.00 | 29 | 1015.7 |
| 20260503204606 | 17 | 289 | 4.8 | 16.1 | 0.00 | 0.00 | 0.00 | 28 | 1015.7 |
| 20260503203551 | 18 | 299 | 4.8 | 14.5 | 0.00 | 0.00 | 0.00 | 28 | 1015.7 |
| 20260503202536 | 18 | 345 | 3.2 | 6.4 | 0.00 | 0.00 | 0.00 | 30 | 1015.8 |
| 20260503201523 | 17 | 306 | 4.8 | 11.3 | 0.00 | 0.00 | 0.00 | 29 | 1016.0 |
| 20260503200611 | 18 | 327 | 3.2 | 11.3 | 0.00 | 0.00 | 0.00 | 31 | 1015.9 |
| 20260503195639 | 17 | 353 | 3.2 | 9.7 | 0.00 | 0.00 | 0.00 | 31 | 1016.1 |
| 20260503194546 | 17 | 310 | 3.2 | 16.1 | 0.00 | 0.00 | 0.00 | 32 | 1016.1 |
| 20260503193533 | 17 | 360 | 4.8 | 20.9 | 0.00 | 0.00 | 0.00 | 31 | 1016.2 |
| 20260503192520 | 18 | 342 | 3.2 | 9.7 | 0.00 | 0.00 | 0.00 | 32 | 1016.5 |
| 20260503191607 | 17 | 313 | 3.2 | 9.7 | 0.00 | 0.00 | 0.00 | 32 | 1016.6 |
| 20260503190551 | 17 | 273 | 4.8 | 9.7 | 0.00 | 0.00 | 0.00 | 33 | 1016.7 |
| 20260503185539 | 16 | 300 | 6.4 | 12.9 | 0.00 | 0.00 | 0.00 | 34 | 1016.8 |
| 20260503184527 | 16 | 303 | 6.4 | 16.1 | 0.00 | 0.00 | 0.00 | 34 | 1016.8 |
| 20260503183614 | 16 | 300 | 6.4 | 22.5 | 0.00 | 0.00 | 0.00 | 34 | 1016.9 |
| 20260503182602 | 17 | 333 | 4.8 | 11.3 | 0.00 | 0.00 | 0.00 | 33 | 1017.0 |
| 20260503181609 | 16 | 311 | 6.4 | 14.5 | 0.00 | 0.00 | 0.00 | 34 | 1017.0 |
| 20260503180534 | 16 | 297 | 4.8 | 14.5 | 0.00 | 0.00 | 0.00 | 34 | 1017.1 |
| 20260503175522 | 16 | 25 | 3.2 | 12.9 | 0.00 | 0.00 | 0.00 | 34 | 1017.1 |
| 20260503174609 | 16 | 329 | 4.8 | 14.5 | 0.00 | 0.00 | 0.00 | 34 | 1017.1 |
| 20260503173558 | 15 | 343 | 4.8 | 16.1 | 0.00 | 0.03 | 0.00 | 36 | 1017.3 |
| 20260503172544 | 16 | 276 | 4.8 | 20.9 | 0.00 | 0.03 | 0.00 | 36 | 1017.4 |
| 20260503171527 | 15 | 334 | 3.2 | 11.3 | 0.00 | 0.05 | 0.00 | 37 | 1017.4 |
| 20260503170615 | 15 | 312 | 4.8 | 16.1 | 0.00 | 0.05 | 0.00 | 38 | 1017.5 |
| 20260503150536 | 13 | 309 | 6.4 | 22.5 | 0.00 | 0.15 | 0.00 | 37 | 1018.2 |
| 20260503130554 | 12 | 306 | 6.4 | 24.1 | 0.00 | 0.15 | 0.00 | 43 | 1017.6 |
| 20260503110605 | 10 | 1 | 3.2 | 12.9 | 0.00 | 0.15 | 0.00 | 49 | 1016.3 |
| 20260503081557 | 10 | 319 | 0.0 | 4.8 | 0.00 | 0.15 | 0.00 | 65 | 1013.6 |
| 20260503080538 | 10 | 301 | 1.6 | 6.4 | 0.00 | 0.15 | 0.00 | 69 | 1013.4 |
| 20260503072557 | 10 | 0.0 | 0.0 | 0.00 | 0.15 | 0.00 | 74 | 1013.0 | |
| 20260503071521 | 9 | 291 | 0.0 | 3.2 | 0.00 | 0.15 | 0.00 | 74 | 1013.0 |
| 20260503070612 | 9 | 0.0 | 0.0 | 0.00 | 0.15 | 0.00 | 74 | 1012.8 | |
| 20260503054518 | 10 | 302 | 0.0 | 3.2 | 0.00 | 0.15 | 0.00 | 62 | 1012.3 |
| 20260503053558 | 11 | 331 | 0.0 | 1.6 | 0.00 | 0.15 | 0.00 | 61 | 1012.4 |
| 20260503052546 | 11 | 313 | 1.6 | 4.8 | 0.00 | 0.15 | 0.00 | 60 | 1012.5 |
| 20260503051534 | 11 | 297 | 0.0 | 3.2 | 0.00 | 0.15 | 0.00 | 60 | 1012.5 |
| 20260503050520 | 11 | 301 | 1.6 | 3.2 | 0.00 | 0.15 | 0.00 | 59 | 1012.5 |
| 20260503045607 | 12 | 316 | 1.6 | 3.2 | 0.00 | 0.15 | 0.00 | 59 | 1012.5 |
| 20260503044553 | 12 | 302 | 1.6 | 3.2 | 0.00 | 0.15 | 0.00 | 59 | 1012.6 |
| 20260503043536 | 12 | 291 | 1.6 | 4.8 | 0.00 | 0.15 | 0.00 | 59 | 1012.6 |
| 20260503042542 | 12 | 296 | 1.6 | 6.4 | 0.00 | 0.15 | 0.00 | 60 | 1012.5 |
| 20260503041652 | 12 | 298 | 1.6 | 4.8 | 0.00 | 0.15 | 0.00 | 60 | 1012.6 |
| 20260503040557 | 12 | 300 | 0.0 | 6.4 | 0.00 | 0.15 | 0.00 | 61 | 1012.5 |
| 20260503035543 | 12 | 302 | 1.6 | 6.4 | 0.00 | 0.15 | 0.15 | 60 | 1012.6 |
| 20260503034525 | 12 | 300 | 1.6 | 6.4 | 0.00 | 0.15 | 0.15 | 60 | 1012.5 |
| 20260503033613 | 12 | 298 | 1.6 | 4.8 | 0.00 | 0.15 | 0.15 | 60 | 1012.3 |
| 20260503032555 | 12 | 299 | 1.6 | 4.8 | 0.00 | 0.15 | 0.15 | 60 | 1012.3 |
| 20260503031624 | 12 | 303 | 0.0 | 3.2 | 0.00 | 0.15 | 0.15 | 59 | 1012.2 |
| 20260503030528 | 12 | 299 | 1.6 | 4.8 | 0.00 | 0.15 | 0.15 | 59 | 1012.3 |
| 20260503025616 | 12 | 303 | 0.0 | 6.4 | 0.00 | 0.15 | 0.15 | 59 | 1012.4 |
| 20260503024559 | 12 | 302 | 1.6 | 6.4 | 0.00 | 0.15 | 0.15 | 58 | 1012.6 |
| 20260503023546 | 12 | 299 | 1.6 | 3.2 | 0.00 | 0.15 | 0.15 | 59 | 1012.5 |
| 20260503022528 | 12 | 305 | 1.6 | 3.2 | 0.00 | 0.15 | 0.15 | 58 | 1012.4 |
| 20260503021616 | 12 | 301 | 1.6 | 3.2 | 0.00 | 0.15 | 0.15 | 58 | 1012.5 |
| 20260503020602 | 12 | 337 | 1.6 | 3.2 | 0.00 | 0.15 | 0.15 | 57 | 1012.5 |
| 20260503015551 | 13 | 318 | 0.0 | 3.2 | 0.00 | 0.15 | 0.15 | 57 | 1012.4 |
| 20260503014558 | 13 | 313 | 1.6 | 4.8 | 0.00 | 0.15 | 0.15 | 56 | 1012.4 |
| 20260503013522 | 13 | 347 | 0.0 | 3.2 | 0.00 | 0.15 | 0.15 | 55 | 1012.2 |